Buffalo, NY

4:47 AM EDT on October 21, 2019 (GMT -0400)
Buffalo Niagara International

Weather History for KBUF - August, 2019

Change the Weather History Date:

Wednesday, August 14, 2019

  Actual Average Record
Temperature  
Mean Temperature 71 °F 70 °F  
Max Temperature 78 °F 79 °F 92 °F (1959)
Min Temperature 63 °F 61 °F 45 °F (1964)
Degree Days  
Heating Degree Days 0 0  
Month to date heating degree days 0 0  
Since 1 June heating degree days 62 73  
Since 1 July heating degree days 0 9  
Cooling Degree Days 6 6  
Month to date cooling degree days 93 84  
Year to date cooling degree days 461 410  
Since 1 June cooling degree days 453 384  
Growing Degree Days 20 (Base 50)    
Moisture  
Dew Point 58 °F    
Average Humidity 68    
Maximum Humidity 93    
Minimum Humidity 43    
Precipitation  
Precipitation 0.00 in 0.11 in 1.10 in (1984)
Month to date precipitation 1.57 1.52  
Year to date precipitation 26.32 23.42  
Snow  
Snow 0.00 in 0.00 in 0.00 in ()
Month to date snowfall 0.0 0.0  
Since 1 June snowfall 0.0 0.0  
Since 1 July snowfall 0.0 0.0  
Snow Depth 0.00 in    
Sea Level Pressure  
Sea Level Pressure 29.92 in    
Wind  
Wind Speed 7 mph (NNE)    
Max Wind Speed 14 mph    
Max Gust Speed 18 mph    
Visibility 10 miles    
Events      
T = Trace of Precipitation, MM = Missing Value Source: NWS Daily Summary

Daily Weather History Graph

Daily Weather History Graph

Search for Another Location

Airport or City:

Astronomy

Aug. 14, 2019 Rise Set
Actual Time 6:19 AM EDT 8:18 PM EDT
Civil Twilight 5:48 AM EDT 8:49 PM EDT
Nautical Twilight 5:11 AM EDT 9:27 PM EDT
Astronomical Twilight 4:29 AM EDT 10:07 PM EDT
Moon 8:13 PM EDT (8/14) 5:12 AM EDT (8/14)
Length of Visible Light 15h 00m
Length of Day
13h 59m
Waxing Gibbous, 99% of the Moon is Illuminated
Aug 14
Waxing Gibbous
Aug 15
Full
Aug 23
Last Quarter
Aug 30
New
Sep 5
First Quarter

Hourly Weather History & Observations

Time (EDT) Temp. Dew Point Humidity Pressure Visibility Wind Dir Wind Speed Gust Speed Precip Events Conditions
12:54 AM 66.0 °F 63.0 °F 90% 29.83 in 10.0 mi North 4.6 mph - N/A   Mostly Cloudy
1:54 AM 64.9 °F 60.1 °F 84% 29.84 in 10.0 mi North 5.8 mph - N/A   Mostly Cloudy
2:54 AM 64.9 °F 60.1 °F 84% 29.84 in 10.0 mi NE 5.8 mph - N/A   Mostly Cloudy
3:54 AM 64.9 °F 60.1 °F 84% 29.84 in 10.0 mi NNE 4.6 mph - N/A   Mostly Cloudy
4:54 AM 64.0 °F 60.1 °F 87% 29.85 in 10.0 mi NNE 5.8 mph - N/A   Mostly Cloudy
5:54 AM 63.0 °F 60.1 °F 90% 29.86 in 10.0 mi NE 4.6 mph - N/A   Mostly Cloudy
6:54 AM 64.0 °F 60.1 °F 87% 29.89 in 10.0 mi NNE 4.6 mph - N/A   Scattered Clouds
7:54 AM 66.0 °F 60.1 °F 81% 29.91 in 10.0 mi NNE 8.1 mph - N/A   Scattered Clouds
8:54 AM 68.0 °F 60.1 °F 76% 29.91 in 10.0 mi NE 9.2 mph - N/A   Partly Cloudy
9:54 AM 70.0 °F 60.1 °F 71% 29.93 in 10.0 mi NE 8.1 mph - N/A   Scattered Clouds
10:54 AM 73.0 °F 61.0 °F 66% 29.94 in 10.0 mi NE 8.1 mph - N/A   Scattered Clouds
11:54 AM 75.0 °F 60.1 °F 60% 29.93 in 10.0 mi North 6.9 mph - N/A   Scattered Clouds
12:54 PM 75.9 °F 60.1 °F 58% 29.92 in 10.0 mi NE 11.5 mph - N/A   Scattered Clouds
1:54 PM 77.0 °F 57.9 °F 52% 29.93 in 10.0 mi North 6.9 mph - N/A   Scattered Clouds
2:54 PM 78.1 °F 57.9 °F 50% 29.93 in 10.0 mi NE 8.1 mph - N/A   Scattered Clouds
3:54 PM 78.1 °F 57.9 °F 50% 29.94 in 10.0 mi NNE 8.1 mph - N/A   Scattered Clouds
4:54 PM 77.0 °F 57.0 °F 50% 29.94 in 10.0 mi North 9.2 mph - N/A   Partly Cloudy
5:54 PM 75.0 °F 54.0 °F 48% 29.95 in 10.0 mi NNE 8.1 mph - N/A   Partly Cloudy
6:54 PM 75.0 °F 51.1 °F 43% 29.95 in 10.0 mi North 6.9 mph - N/A   Partly Cloudy
7:54 PM 73.0 °F 52.0 °F 48% 29.95 in 10.0 mi North 5.8 mph - N/A   Partly Cloudy
8:54 PM 69.1 °F 53.1 °F 57% 29.96 in 10.0 mi NNE 5.8 mph - N/A   Partly Cloudy
9:54 PM 66.9 °F 54.0 °F 63% 29.99 in 10.0 mi NE 4.6 mph - N/A   Partly Cloudy
10:54 PM 66.0 °F 53.1 °F 63% 29.99 in 10.0 mi NE 4.6 mph - N/A   Partly Cloudy
11:54 PM 64.0 °F 54.0 °F 70% 30.00 in 10.0 mi NE 5.8 mph - N/A   Scattered Clouds